Date,TemperatureHighF,TemperatureAvgF,TemperatureLowF,DewpointHighF,DewpointAvgF,DewpointLowF,HumidityHigh,HumidityAvg,HumidityLow,PressureMaxIn,PressureMinIn,WindSpeedMaxMPH,WindSpeedAvgMPH,GustSpeedMaxMPH,PrecipitationSumIn
2013-1-1,36.5,32.3,21.4,24.4,15.8,4.7,64,51,37,29.77,29.55,0,0,0,0.00
2013-1-2,30.2,22.1,13.6,12.4,5.2,-3.2,56,47,42,29.94,29.73,0,0,0,0.00
2013-1-3,25.2,16.7,8.1,6.7,-3.2,-10.2,53,41,25,29.97,29.82,0,0,0,0.00
2013-1-4,39.7,30.2,20.3,23.2,16.4,6.9,67,56,45,29.81,29.64,0,0,0,0.00
2013-1-5,41.9,34.8,28.8,24.1,18.8,12.9,66,53,31,30.09,29.68,0,0,0,0.00
2013-1-6,42.8,35.1,28.8,27.0,23.6,18.7,76,63,50,30.06,29.77,0,0,0,0.00
2013-1-7,38.3,34.4,30.0,26.6,21.8,11.4,74,61,37,30.24,29.79,0,0,0,0.00
2013-1-8,46.9,37.3,29.5,27.4,25.5,22.9,79,63,44,30.21,30.09,0,0,0,0.00
2013-1-9,44.4,38.1,29.5,34.4,27.7,23.1,77,66,52,30.23,29.83,0,0,0,0.00
2013-1-10,47.1,42.5,35.6,27.0,22.2,18.7,55,44,33,30.37,29.87,0,0,0,0.00
2013-1-11,41.7,37.0,30.7,35.7,26.8,20.3,87,67,55,30.35,30.06,0,0,0,0.09
2013-1-12,45.7,42.6,38.8,41.8,39.6,35.8,93,89,85,30.07,29.96,0,0,0,0.01
2013-1-13,53.1,48.0,43.5,49.0,45.3,41.6,93,90,85,29.99,29.82,0,0,0,0.00
2013-1-14,61.2,53.2,43.5,51.9,41.8,25.1,90,68,37,30.08,29.69,0,0,0,0.00
2013-1-15,43.2,39.8,36.5,25.6,23.6,19.7,58,52,48,30.15,30.05,0,0,0,0.00
2013-1-16,36.5,34.0,31.3,31.2,27.1,17.4,88,77,47,30.08,29.65,0,0,0,0.12
2013-1-17,42.3,36.1,30.6,31.1,26.0,11.3,87,68,44,29.93,29.67,0,0,0,0.20
2013-1-18,30.2,23.8,18.7,8.3,-4.3,-11.6,39,29,23,30.29,29.89,0,0,0,0.00
2013-1-19,48.4,37.6,24.4,30.6,19.2,0.8,67,48,34,30.22,29.73,0,0,0,0.00
2013-1-20,53.8,42.4,30.4,31.8,22.7,3.7,68,47,25,29.75,29.37,0,0,0,0.00
2013-1-21,30.0,26.5,23.7,17.3,5.8,-1.9,73,43,27,29.93,29.63,0,0,0,0.00
2013-1-22,25.2,21.8,15.3,16.9,3.6,-11.1,77,48,25,29.91,29.59,0,0,0,0.00
2013-1-23,16.5,12.8,8.8,-2.8,-11.5,-15.8,47,32,24,29.98,29.89,0,0,0,0.00
2013-1-24,19.8,12.9,8.2,-8.7,-13.8,-15.4,33,29,22,30.04,29.88,0,0,0,0.00
2013-1-25,24.4,17.6,10.4,8.1,-9.1,-15.9,61,30,23,30.13,29.91,0,0,0,0.00
2013-1-26,24.6,19.1,13.8,9.3,-1.2,-12.5,66,43,24,30.06,29.83,0,0,0,0.00
2013-1-27,30.6,21.9,14.4,0.1,-3.5,-7.0,50,33,22,30.30,30.06,0,0,0,0.00
2013-1-28,32.7,26.6,21.0,25.3,7.5,-5.2,82,47,26,30.28,29.84,0,0,0,0.00
2013-1-29,35.6,31.6,26.6,30.8,25.4,20.4,83,77,72,30.03,29.85,0,0,0,0.09
2013-1-30,61.2,50.1,35.6,55.9,46.8,30.7,95,89,80,30.00,29.30,0,0,0,0.11
2013-1-31,60.4,48.5,32.4,57.3,34.9,8.6,91,63,32,29.42,28.81,0,0,0,0.28
2013-2-1,33.4,29.8,23.9,13.1,3.8,-3.3,46,33,25,29.91,29.42,0,0,0,0.00
2013-2-2,30.7,25.7,19.9,8.8,2.3,-3.6,47,36,26,30.08,29.88,0,0,0,0.00
2013-2-3,27.9,25.8,23.7,18.9,16.3,8.3,73,67,43,29.88,29.56,0,0,0,0.00
2013-2-4,30.4,25.9,22.8,18.4,7.3,-2.8,74,47,27,29.77,29.55,0,0,0,0.00
2013-2-5,29.8,26.2,23.0,20.8,8.9,1.9,75,48,34,29.85,29.77,0,0,0,0.00
2013-2-6,38.7,31.4,26.8,24.5,16.7,-1.7,78,57,27,30.11,29.75,0,0,0,0.02
2013-2-7,29.5,25.6,20.1,14.7,-2.5,-6.7,55,29,22,30.36,30.12,0,0,0,0.00
2013-2-8,33.4,30.3,18.1,29.5,24.0,13.3,93,78,57,30.32,29.44,0,0,0,0.00
2013-2-9,21.2,18.9,16.0,17.5,11.2,-0.2,86,73,48,30.02,29.39,0,0,0,0.00
2013-2-10,38.3,25.3,14.0,16.4,5.1,-2.2,60,43,24,30.22,30.03,0,0,0,0.00
2013-2-11,43.2,33.6,23.9,41.3,27.5,11.3,95,79,56,30.18,29.44,0,0,0,0.21
2013-2-12,44.4,39.2,34.7,36.8,28.0,24.2,95,65,49,29.71,29.43,0,0,0,0.01
2013-2-13,43.2,36.2,30.0,26.1,23.3,20.8,70,60,47,29.69,29.52,0,0,0,0.00
2013-2-14,43.3,37.0,32.4,26.3,21.5,18.4,71,54,37,29.83,29.54,0,0,0,0.00
2013-2-15,51.1,40.0,31.6,34.0,29.6,21.4,83,67,49,29.83,29.74,0,0,0,0.00
2013-2-16,39.0,35.7,31.8,30.4,25.4,14.6,84,67,45,29.78,29.55,0,0,0,0.02
2013-2-17,31.5,22.8,18.1,16.4,7.4,-7.5,81,54,30,29.53,29.21,0,0,0,0.01
2013-2-18,31.8,23.6,15.4,1.2,-2.8,-7.1,43,31,24,29.99,29.50,0,0,0,0.00
2013-2-19,47.5,37.4,24.4,41.6,22.2,0.0,91,56,33,30.00,29.42,0,0,0,0.28
2013-2-20,43.0,33.8,27.7,40.3,18.0,6.0,91,54,32,29.61,29.36,0,0,0,0.01
2013-2-21,32.9,28.5,25.5,11.7,9.0,4.5,53,44,34,30.00,29.61,0,0,0,0.00
2013-2-22,39.2,32.8,26.1,22.8,18.1,11.7,64,55,45,30.21,30.03,0,0,0,0.00
2013-2-23,39.9,36.3,32.7,31.0,26.9,21.6,86,69,60,30.17,29.76,0,0,0,0.11
2013-2-24,37.9,34.9,31.6,36.6,32.0,28.8,95,89,85,29.76,29.53,0,0,0,0.46
2013-2-25,40.5,35.8,31.1,31.4,28.7,25.0,89,76,61,30.08,29.73,0,0,0,0.27
2013-2-26,44.1,37.7,31.3,33.5,28.6,24.6,85,70,50,30.17,30.00,0,0,0,0.00
2013-2-27,41.9,40.3,38.8,39.8,37.7,30.6,95,90,72,29.99,29.39,0,0,0,1.22
2013-2-28,46.8,40.0,35.1,37.8,34.3,31.3,95,80,64,29.47,29.36,0,0,0,0.01
2013-3-1,41.7,39.0,36.5,34.8,29.0,24.9,85,68,56,29.51,29.36,0,0,0,0.00
2013-3-2,43.9,38.7,34.0,28.0,25.2,21.7,66,58,50,29.60,29.46,0,0,0,0.00
2013-3-3,42.6,37.0,33.6,31.5,26.5,21.9,82,66,59,29.58,29.50,0,0,0,0.00
2013-3-4,40.8,35.3,31.3,26.4,21.7,17.8,73,58,46,29.66,29.51,0,0,0,0.00
2013-3-5,45.1,38.4,32.2,31.8,25.6,19.0,76,60,48,30.00,29.67,0,0,0,0.00
2013-3-6,40.6,37.9,35.4,35.1,31.5,26.8,87,78,63,30.05,29.98,0,0,0,0.15
2013-3-7,36.5,33.1,31.3,29.6,28.0,25.5,87,82,64,30.01,29.93,0,0,0,0.00
2013-3-8,41.4,34.0,29.5,30.0,26.1,21.5,90,75,47,30.08,29.88,0,0,0,0.14
2013-3-9,43.2,36.8,32.0,29.6,24.1,18.1,81,60,49,30.29,30.08,0,0,0,0.09
2013-3-10,41.5,35.6,29.5,30.9,28.2,25.5,85,75,63,30.35,30.25,0,0,0,0.01
2013-3-11,53.1,43.2,36.0,39.1,34.4,29.7,84,72,54,30.26,30.09,0,0,0,0.00
2013-3-12,56.8,50.4,42.1,52.4,46.4,38.2,92,86,75,30.11,29.67,0,0,0,0.21
2013-3-13,53.1,46.1,39.4,50.8,29.8,16.2,92,56,27,29.73,29.63,0,0,0,0.01
2013-3-14,39.0,33.5,24.4,21.6,10.7,-1.4,57,39,27,29.77,29.65,0,0,0,0.00
2013-3-15,41.5,31.2,21.2,25.9,8.3,-2.6,62,39,23,29.80,29.57,0,0,0,0.00
2013-3-16,39.7,35.5,30.4,22.9,11.0,2.9,59,37,24,29.80,29.59,0,0,0,0.00
2013-3-17,38.1,32.5,27.3,15.5,5.7,-4.2,48,33,22,30.26,29.81,0,0,0,0.00
2013-3-18,38.1,29.6,20.8,23.7,4.5,-6.9,76,35,23,30.40,30.20,0,0,0,0.00
2013-3-19,36.0,33.1,29.5,32.8,29.9,23.7,90,88,76,30.19,29.55,0,0,0,0.34
2013-3-20,39.4,32.4,27.0,25.3,19.2,15.9,84,59,42,29.75,29.63,0,0,0,0.02
2013-3-21,38.1,32.8,28.2,27.5,20.2,13.7,79,60,41,29.76,29.55,0,0,0,0.04
2013-3-22,40.3,34.7,29.7,26.9,17.9,13.5,80,51,34,29.67,29.53,0,0,0,0.00
2013-3-23,43.5,36.5,29.5,21.6,17.0,11.7,66,46,27,29.72,29.57,0,0,0,0.00
2013-3-24,46.9,39.4,32.2,28.3,21.2,16.4,66,49,34,29.75,29.67,0,0,0,0.00
2013-3-25,45.1,39.2,33.8,32.5,28.0,22.9,70,64,56,29.70,29.46,0,0,0,0.00
2013-3-26,50.9,42.2,35.2,29.2,21.6,14.3,76,46,24,29.71,29.47,0,0,0,0.01
2013-3-27,53.6,44.5,34.0,30.7,20.9,16.7,63,40,23,29.80,29.67,0,0,0,0.00
2013-3-28,48.0,43.3,38.1,34.7,31.7,27.2,85,65,45,29.95,29.80,0,0,0,0.00
2013-3-29,57.9,47.5,37.6,32.9,30.2,24.7,72,53,30,29.99,29.90,0,0,0,0.00
2013-3-30,58.5,48.6,39.9,31.3,24.2,14.2,66,42,21,30.03,29.93,0,0,0,0.00
2013-3-31,61.2,48.1,33.8,40.5,26.2,20.3,73,45,22,30.05,29.69,0,0,0,0.00
2013-4-1,63.0,48.4,36.9,48.1,37.1,6.0,96,68,27,29.72,29.44,0,0,0,0.14
2013-4-2,41.0,35.8,31.6,15.1,10.6,3.2,48,35,24,29.88,29.72,0,0,0,0.00
2013-4-3,47.8,38.0,31.3,17.2,10.8,3.8,53,33,22,30.08,29.86,0,0,0,0.00
2013-4-4,58.8,43.2,31.5,25.8,16.4,9.4,54,35,21,30.23,29.99,0,0,0,0.00
2013-4-5,61.5,47.3,39.0,31.1,26.1,17.5,67,47,22,30.00,29.56,0,0,0,0.00
2013-4-6,49.3,39.6,33.4,26.1,11.4,1.8,56,33,21,30.27,29.81,0,0,0,0.00
2013-4-7,54.7,44.4,32.4,40.4,27.3,14.4,78,53,27,30.27,29.94,0,0,0,0.00
2013-4-8,64.6,53.2,45.0,44.4,40.1,33.1,90,64,32,30.04,29.88,0,0,0,0.00
2013-4-9,70.9,56.4,48.2,52.4,44.7,39.3,93,68,38,30.03,29.79,0,0,0,0.11
2013-4-10,61.7,52.3,47.7,49.3,45.3,42.2,93,78,58,29.96,29.81,0,0,0,0.18
2013-4-11,51.6,48.0,45.0,48.4,41.8,29.3,97,80,54,30.08,29.77,0,0,0,0.05
2013-4-12,44.6,40.3,38.1,38.8,35.7,29.0,99,84,54,30.11,29.72,0,0,0,0.41
2013-4-13,52.5,43.2,36.5,40.5,37.3,34.1,97,81,52,29.86,29.69,0,0,0,0.02
2013-4-14,53.6,47.7,42.4,41.0,32.1,23.7,82,57,32,30.14,29.85,0,0,0,0.00
2013-4-15,55.2,46.4,37.0,39.2,33.2,27.8,75,61,42,30.33,30.15,0,0,0,0.00
2013-4-16,64.4,53.4,41.7,50.6,41.8,35.6,85,66,44,30.34,30.00,0,0,0,0.00
2013-4-17,68.0,59.8,52.7,53.1,35.9,23.9,84,45,21,30.26,29.99,0,0,0,0.00
2013-4-18,64.4,54.1,45.5,44.6,34.9,24.7,72,50,28,30.37,30.09,0,0,0,0.00
2013-4-19,76.1,64.3,53.4,64.5,58.7,44.6,99,83,58,30.08,29.61,0,0,0,0.00
2013-4-20,67.1,55.6,46.4,64.4,41.9,23.3,98,65,34,30.14,29.55,0,0,0,0.44
2013-4-21,52.5,44.3,36.9,31.9,22.3,15.5,62,43,23,30.61,30.15,0,0,0,0.00
2013-4-22,50.9,44.3,37.0,36.3,31.3,22.0,77,61,33,30.70,30.53,0,0,0,0.00
2013-4-23,43.0,42.0,40.8,42.5,39.7,32.3,99,92,69,30.52,30.07,0,0,0,0.04
2013-4-24,72.3,55.3,42.4,52.4,46.5,42.2,99,76,42,30.06,29.73,0,0,0,0.01
2013-4-25,65.1,56.8,49.8,54.0,36.7,22.2,95,53,20,30.21,29.77,0,0,0,0.02
2013-4-26,56.3,51.2,46.4,43.2,36.6,30.7,85,59,42,30.37,30.21,0,0,0,0.00
2013-4-27,62.8,53.4,42.1,43.5,37.1,28.1,92,59,29,30.36,30.23,0,0,0,0.00
2013-4-28,67.6,56.2,44.2,42.2,36.4,27.5,82,51,27,30.28,30.16,0,0,0,0.00
2013-4-29,69.4,59.1,49.6,48.1,37.9,21.4,83,50,22,30.22,30.13,0,0,0,0.00
2013-4-30,67.6,57.4,48.0,40.1,30.4,20.1,69,40,17,30.31,30.20,0,0,0,0.00
2013-5-1,66.0,56.7,44.2,39.6,35.2,27.7,81,48,25,30.42,30.32,0,0,0,0.00
2013-5-2,75.0,57.2,47.7,48.0,42.1,30.8,85,61,22,30.43,30.31,0,0,0,0.00
2013-5-3,58.6,51.3,44.8,45.4,42.1,39.8,89,71,55,30.46,30.32,0,0,0,0.00
2013-5-4,57.0,50.2,43.9,45.9,41.4,39.2,90,73,57,30.32,30.26,0,0,0,0.00
2013-5-5,57.7,49.7,40.1,43.6,40.5,38.5,95,73,50,30.27,30.20,0,0,0,0.00
2013-5-6,63.0,52.2,43.0,50.0,46.2,40.8,96,81,57,30.22,30.10,0,0,0,0.00
2013-5-7,73.4,62.7,48.0,59.2,52.8,46.4,95,72,48,30.12,30.04,0,0,0,0.00
2013-5-8,70.5,62.5,56.5,63.6,58.8,55.1,97,88,75,30.15,30.00,0,0,0,0.09
2013-5-9,67.3,59.8,57.6,63.1,59.0,56.7,99,97,84,30.00,29.84,0,0,0,0.73
2013-5-10,77.5,65.4,56.7,61.2,58.4,56.4,99,80,51,29.90,29.83,0,0,0,0.01
2013-5-11,72.1,65.0,60.3,64.2,60.3,55.6,95,85,70,29.86,29.64,0,0,0,0.06
2013-5-12,71.6,63.2,53.4,61.7,53.6,29.7,98,75,35,29.75,29.51,0,0,0,0.07
2013-5-13,59.5,52.5,46.2,36.3,30.1,25.1,65,44,27,29.97,29.75,0,0,0,0.00
2013-5-14,58.3,51.6,43.2,36.1,30.7,25.7,68,46,29,29.98,29.91,0,0,0,0.00
2013-5-15,66.7,54.2,41.9,53.8,40.6,29.8,88,63,29,29.99,29.62,0,0,0,0.00
2013-5-16,80.4,67.3,51.1,52.6,42.4,29.8,95,49,20,29.75,29.57,0,0,0,0.00
2013-5-17,68.9,61.2,54.3,46.5,42.2,35.5,69,51,31,30.16,29.75,0,0,0,0.00
2013-5-18,70.5,61.3,49.8,50.6,45.6,35.3,85,59,28,30.25,30.16,0,0,0,0.00
2013-5-19,70.3,58.6,52.9,56.6,51.5,47.7,99,78,52,30.29,30.18,0,0,0,0.07
2013-5-20,81.3,67.8,56.7,65.3,61.3,56.4,99,82,56,30.17,29.86,0,0,0,0.04
2013-5-21,76.6,62.9,52.9,65.3,58.5,51.8,97,86,65,29.96,29.82,0,0,0,0.02
2013-5-22,66.6,57.2,51.6,60.7,54.7,51.3,99,92,77,30.00,29.84,0,0,0,0.11
2013-5-23,75.7,65.0,55.6,69.7,62.3,55.3,99,92,77,29.88,29.75,0,0,0,0.07
2013-5-24,71.8,63.6,50.5,68.4,62.5,50.3,99,96,80,29.77,29.60,0,0,0,0.72
2013-5-25,52.5,48.9,43.2,51.7,48.2,40.1,99,97,89,29.76,29.64,0,0,0,0.19
2013-5-26,58.5,49.6,41.4,43.9,40.4,37.4,97,73,48,30.03,29.65,0,0,0,0.05
2013-5-27,72.1,58.9,43.9,46.6,38.5,30.4,91,53,22,30.11,30.00,0,0,0,0.00
2013-5-28,72.3,61.4,49.3,53.9,47.4,40.2,86,63,33,30.18,30.10,0,0,0,0.00
2013-5-29,70.7,63.5,59.5,65.0,60.7,53.4,99,91,75,30.14,29.94,0,0,0,1.17
2013-5-30,88.0,75.4,62.8,70.4,66.3,61.9,99,76,49,30.02,29.95,0,0,0,0.00
2013-5-31,93.6,81.5,67.6,70.0,66.8,64.1,94,64,39,30.04,29.87,0,0,0,0.00
2013-6-1,92.8,81.7,70.7,69.1,66.4,63.6,81,61,41,29.93,29.80,0,0,0,0.00
2013-6-2,89.4,79.6,70.7,70.3,67.4,64.4,87,68,44,29.83,29.67,0,0,0,0.00
2013-6-3,79.0,71.1,66.0,69.4,65.4,47.9,96,83,52,29.80,29.70,0,0,0,0.33
2013-6-4,74.1,64.3,55.0,48.6,45.3,42.6,66,51,37,30.04,29.78,0,0,0,0.00
2013-6-5,74.5,65.3,55.2,52.2,47.4,42.5,76,54,35,30.13,30.04,0,0,0,0.00
2013-6-6,75.4,67.8,57.9,55.9,52.8,48.1,78,59,44,30.13,30.07,0,0,0,0.00
2013-6-7,72.3,58.6,23.4,58.4,46.8,-0.7,99,70,23,30.41,29.50,0,0,0,17.02
2013-6-8,78.6,64.1,54.3,65.9,58.9,53.5,99,84,64,29.87,29.47,0,0,0,0.77
2013-6-9,80.4,69.8,59.2,60.3,57.2,54.1,95,67,43,30.04,29.87,0,0,0,0.00
2013-6-10,70.5,64.4,58.6,59.8,58.2,56.5,99,81,62,30.08,29.90,0,0,0,0.52
2013-6-11,64.0,59.4,56.8,60.0,58.1,56.6,99,96,84,29.90,29.45,0,0,0,1.13
2013-6-12,70.2,63.1,57.2,60.4,56.6,53.7,99,81,57,29.68,29.43,0,0,0,0.04
2013-6-13,68.4,59.5,53.6,58.9,55.4,52.5,97,87,64,29.69,29.55,0,0,0,0.63
2013-6-14,72.0,60.6,52.2,58.3,54.6,51.6,99,82,53,29.62,29.51,0,0,0,1.00
2013-6-15,79.5,68.6,58.5,55.8,48.5,41.0,89,53,27,29.81,29.63,0,0,0,0.00
2013-6-16,76.3,68.1,57.2,63.6,55.2,49.4,86,64,46,29.81,29.59,0,0,0,0.00
2013-6-17,86.2,71.2,62.1,66.4,61.6,56.4,97,75,38,29.78,29.65,0,0,0,0.32
2013-6-18,75.9,64.6,60.3,64.3,61.3,58.8,98,90,64,29.82,29.75,0,0,0,0.71
2013-6-19,73.8,65.2,57.4,59.2,53.4,46.7,99,69,41,30.02,29.77,0,0,0,0.02
2013-6-20,78.3,68.2,55.6,58.5,53.3,48.2,90,62,36,30.12,30.02,0,0,0,0.00
2013-6-21,84.9,72.4,61.0,65.5,59.2,55.1,81,65,41,30.12,30.06,0,0,0,0.00
2013-6-22,84.7,74.5,65.1,64.0,60.6,57.7,77,63,45,30.10,29.99,0,0,0,0.00
2013-6-23,89.8,78.1,66.9,72.4,66.0,57.5,80,67,52,30.04,29.86,0,0,0,0.00
2013-6-24,92.5,81.2,72.5,73.2,71.0,68.9,95,73,48,29.90,29.74,0,0,0,0.12
2013-6-25,91.0,80.7,71.2,71.4,69.1,66.6,93,70,45,29.80,29.60,0,0,0,0.01
2013-6-26,84.9,77.1,70.3,72.2,70.1,68.6,94,80,60,29.73,29.59,0,0,0,0.08
2013-6-27,72.5,67.2,63.9,68.2,65.3,62.7,99,94,81,29.75,29.64,0,0,0,0.04
2013-6-28,82.2,71.7,62.6,75.2,68.6,61.8,99,91,71,29.64,29.36,0,0,0,0.37
2013-6-29,84.4,76.4,72.0,72.5,70.5,68.0,95,83,60,29.60,29.40,0,0,0,0.00
2013-6-30,86.0,77.7,71.2,74.3,71.3,68.5,94,81,64,29.81,29.60,0,0,0,0.00
2013-7-1,82.6,76.6,72.5,76.9,73.6,71.3,98,90,75,29.96,29.81,0,0,0,0.12
2013-7-2,84.2,75.5,65.1,75.0,71.1,62.0,95,86,69,30.09,29.95,0,0,0,0.00
2013-7-3,88.5,77.4,64.0,73.9,70.0,61.9,94,79,58,30.08,30.00,0,0,0,0.00
2013-7-4,92.3,83.5,74.3,75.8,73.9,71.6,96,75,53,30.08,29.96,0,0,0,0.00
2013-7-5,94.1,85.6,78.1,76.5,74.1,71.9,86,70,49,30.03,29.91,0,0,0,0.02
2013-7-6,91.8,83.6,77.7,75.3,72.8,66.4,87,71,49,29.95,29.84,0,0,0,0.15
2013-7-7,92.5,81.5,73.8,76.1,70.8,65.1,88,71,53,29.90,29.77,0,0,0,0.00
2013-7-8,85.6,78.6,71.4,76.1,72.8,65.8,94,83,67,29.94,29.77,0,0,0,0.00
2013-7-9,75.0,70.5,66.9,68.8,66.4,65.0,96,87,79,29.98,29.92,0,0,0,0.00
2013-7-10,86.5,75.3,68.0,75.7,71.5,65.3,99,88,67,29.95,29.67,0,0,0,0.04
2013-7-11,81.7,77.4,73.8,75.1,73.2,69.5,97,87,73,29.79,29.65,0,0,0,0.13
2013-7-12,78.1,72.9,68.9,71.2,62.6,56.9,92,71,53,30.07,29.79,0,0,0,0.00
2013-7-13,78.3,71.7,68.0,70.2,66.9,63.5,95,85,75,30.19,30.08,0,0,0,0.02
2013-7-14,91.8,79.9,70.2,75.4,71.8,67.7,98,78,47,30.18,30.07,0,0,0,0.00
2013-7-15,91.4,82.6,74.1,74.3,72.1,69.0,95,73,48,30.08,29.97,0,0,0,0.00
2013-7-16,93.7,82.9,74.1,74.5,69.2,64.0,87,65,39,30.04,29.98,0,0,0,0.00
2013-7-17,95.2,85.2,74.8,74.9,71.6,68.3,87,66,43,30.05,29.87,0,0,0,0.00
2013-7-18,91.0,83.8,78.8,76.1,72.5,67.4,83,70,51,29.88,29.82,0,0,0,0.00
2013-7-19,97.3,87.7,78.1,78.9,74.8,70.5,91,68,43,29.82,29.59,0,0,0,0.00
2013-7-20,94.1,86.5,81.0,77.7,74.2,64.8,85,68,46,29.67,29.51,0,0,0,0.00
2013-7-21,81.7,76.7,72.1,70.1,66.0,61.6,91,70,53,29.86,29.68,0,0,0,0.09
2013-7-22,82.0,74.7,69.8,71.3,69.0,66.5,95,83,64,29.89,29.77,0,0,0,0.00
2013-7-23,80.4,73.6,70.3,77.4,72.2,67.9,99,95,86,29.76,29.42,0,0,0,1.24
2013-7-24,85.1,77.4,69.1,75.9,68.4,56.0,99,76,54,29.84,29.46,0,0,0,0.00
2013-7-25,69.1,62.9,60.4,60.4,56.1,49.8,99,79,61,29.97,29.83,0,0,0,0.35
2013-7-26,70.9,65.4,60.4,68.5,64.0,60.2,99,95,84,29.93,29.79,0,0,0,0.76
2013-7-27,83.7,72.6,61.3,68.3,64.7,60.7,98,78,50,29.93,29.86,0,0,0,0.01
2013-7-28,80.8,73.0,68.9,71.8,69.0,65.6,97,88,73,29.89,29.84,0,0,0,0.04
2013-7-29,83.3,73.6,68.7,71.9,69.2,66.9,97,87,66,30.03,29.85,0,0,0,0.11
2013-7-30,82.6,73.9,64.6,69.7,61.1,55.1,99,67,41,30.09,30.02,0,0,0,0.01
2013-7-31,81.5,73.9,65.3,65.0,60.8,54.8,85,65,41,30.13,30.04,0,0,0,0.00
2013-8-1,82.4,74.9,66.2,66.4,63.3,61.1,90,69,52,30.05,29.90,0,0,0,0.00
2013-8-2,82.6,77.3,71.4,69.9,63.2,57.9,92,62,46,29.97,29.88,0,0,0,0.35
2013-8-3,79.2,73.1,67.5,65.8,63.6,61.3,88,73,55,29.97,29.87,0,0,0,0.00
2013-8-4,80.2,71.4,63.9,62.5,58.1,54.9,79,64,42,29.94,29.74,0,0,0,0.00
2013-8-5,75.7,68.0,60.1,55.1,48.9,41.7,80,53,30,30.04,29.87,0,0,0,0.00
2013-8-6,78.4,68.1,56.5,56.9,52.3,48.8,85,59,37,30.14,30.04,0,0,0,0.00
2013-8-7,81.0,70.8,60.6,62.5,55.9,49.2,90,62,37,30.19,30.09,0,0,0,0.00
2013-8-8,80.6,73.3,67.3,72.0,67.0,55.1,94,81,63,30.13,29.98,0,0,0,0.06
2013-8-9,75.4,73.6,72.3,75.1,72.4,70.3,99,96,91,30.01,29.73,0,0,0,1.02
2013-8-10,82.8,75.2,68.5,72.0,63.2,56.7,98,70,43,29.99,29.76,0,0,0,0.00
2013-8-11,79.0,70.2,60.1,60.0,55.9,51.4,86,62,43,30.06,29.98,0,0,0,0.00
2013-8-12,81.1,72.9,63.9,63.5,59.3,53.4,87,65,39,30.02,29.90,0,0,0,0.00
2013-8-13,75.7,71.3,68.2,69.0,65.0,62.8,87,81,66,29.91,29.67,0,0,0,0.00
2013-8-14,75.0,68.9,64.0,65.4,55.7,50.6,92,64,46,29.95,29.64,0,0,0,0.00
2013-8-15,76.8,67.6,59.0,55.0,52.7,48.8,82,61,39,30.10,29.95,0,0,0,0.00
2013-8-16,78.6,69.5,58.6,59.3,55.3,53.0,86,63,41,30.18,30.09,0,0,0,0.00
2013-8-17,78.3,70.4,61.3,60.5,58.1,55.0,84,66,49,30.27,30.18,0,0,0,0.00
2013-8-18,81.0,72.1,64.4,64.7,60.3,56.2,86,68,43,30.26,30.06,0,0,0,0.00
2013-8-19,82.0,73.2,62.4,63.2,60.7,57.0,89,67,44,30.07,29.93,0,0,0,0.00
2013-8-20,85.8,75.1,72.9,64.8,62.1,59.4,73,65,41,30.14,29.91,0,0,0,0.00
2013-8-21,88.2,77.5,66.4,66.9,64.2,61.8,86,65,44,30.16,30.03,0,0,0,0.00
2013-8-22,87.1,77.6,69.3,72.4,68.4,64.8,90,74,51,30.06,29.83,0,0,0,0.00
2013-8-23,80.2,73.7,67.8,71.2,61.1,51.4,91,66,45,30.13,29.83,0,0,0,0.00
2013-8-24,75.2,67.6,58.8,52.6,48.3,42.4,75,52,34,30.36,30.14,0,0,0,0.00
2013-8-25,82.6,70.7,57.4,57.1,52.4,42.3,85,56,25,30.39,30.20,0,0,0,0.00
2013-8-26,82.0,73.6,67.1,68.0,62.9,56.8,84,70,54,30.20,29.88,0,0,0,0.00
2013-8-27,80.4,74.5,70.3,71.3,68.4,66.4,95,82,66,29.92,29.84,0,0,0,0.01
2013-8-28,81.0,71.6,66.7,68.6,66.6,65.0,95,85,61,29.92,29.87,0,0,0,0.00
2013-9-10,73.4,73.1,72.1,70.5,70.3,69.4,91,91,90,30.10,30.09,0,0,0,0.08
2013-9-11,93.7,81.0,69.6,77.1,72.1,66.9,99,77,46,30.09,29.94,0,0,0,0.00
2013-9-12,87.6,79.1,69.3,74.9,71.5,67.2,97,78,59,29.98,29.68,0,0,0,1.15
2013-9-13,78.3,70.1,63.9,70.0,66.4,58.3,99,89,66,29.76,29.56,0,0,0,0.17
2013-9-14,67.8,63.2,57.0,58.3,54.7,51.7,85,74,63,30.08,29.76,0,0,0,0.00
2013-9-15,71.4,61.7,52.2,53.9,50.5,46.4,92,69,43,30.19,30.08,0,0,0,0.00
2013-9-16,68.4,60.4,51.6,56.2,51.2,40.0,85,72,56,30.27,30.04,0,0,0,0.01
2013-9-17,62.4,53.7,43.9,45.5,39.5,34.1,79,60,38,30.45,30.28,0,0,0,0.00
2013-9-18,72.3,59.3,46.6,50.4,45.5,40.7,92,64,32,30.36,30.16,0,0,0,0.00
2013-9-19,76.8,65.1,52.7,55.3,52.7,49.3,88,66,44,30.16,30.05,0,0,0,0.00
2013-9-20,76.6,65.0,54.3,58.8,56.1,52.1,93,74,53,30.11,30.02,0,0,0,0.00
2013-9-21,76.3,67.4,58.1,66.5,61.2,55.5,97,81,58,30.05,29.74,0,0,0,0.00
2013-9-22,71.4,66.3,56.1,68.4,58.9,48.3,98,79,50,29.85,29.62,0,0,0,0.58
2013-9-23,62.6,55.3,49.5,47.1,42.9,40.4,78,64,51,30.02,29.85,0,0,0,0.00
2013-9-24,66.0,55.4,46.4,46.4,43.1,40.8,84,65,43,30.02,29.83,0,0,0,0.00
2013-9-25,65.1,57.0,48.9,51.3,47.9,45.2,88,72,56,30.01,29.90,0,0,0,0.00
2013-9-26,64.9,59.4,55.0,52.7,49.7,47.0,81,71,56,30.15,30.01,0,0,0,0.00
2013-9-27,66.2,62.1,57.4,53.7,52.4,51.3,82,71,62,30.25,30.15,0,0,0,0.00
2013-9-28,65.5,65.5,65.5,52.6,52.6,52.6,63,63,63,30.23,30.23,0,0,0,0.00
2013-9-29,65.5,65.5,65.5,52.6,52.6,52.6,63,63,63,30.23,30.23,0,0,0,0.00
2013-9-30,90.7,68.3,53.8,77.7,57.4,49.7,90,69,57,30.23,29.71,0,0,0,6.48
2013-10-1,75.0,62.0,50.5,55.4,52.1,48.1,96,73,39,29.98,29.85,0,0,0,0.00
2013-10-2,79.2,67.7,56.5,61.4,58.4,54.2,93,74,52,29.95,29.83,0,0,0,0.00
2013-10-3,77.0,66.6,57.4,58.3,52.3,46.2,88,63,35,30.08,29.95,0,0,0,0.00
2013-10-4,66.2,61.8,56.7,59.8,55.4,51.1,88,80,71,30.09,30.04,0,0,0,0.02
2013-10-5,69.8,64.0,60.8,59.5,57.9,55.8,93,81,64,30.13,30.06,0,0,0,0.00
2013-10-6,62.8,58.4,55.9,59.3,57.4,55.7,99,97,81,30.23,30.12,0,0,0,0.33
2013-10-7,76.6,67.3,58.5,72.4,64.7,56.9,99,92,78,30.13,29.83,0,0,0,0.02
2013-10-8,65.5,59.8,52.2,56.4,45.6,36.7,79,61,36,30.37,29.91,0,0,0,0.00
2013-10-9,61.7,54.1,46.0,47.6,44.7,41.4,87,72,53,30.47,30.36,0,0,0,0.00
2013-10-10,62.8,54.5,46.2,54.0,49.9,44.6,95,85,69,30.36,30.19,0,0,0,0.00
2013-10-11,69.3,58.8,51.6,56.4,51.1,45.2,98,78,44,30.18,30.10,0,0,0,0.00
2013-10-12,61.0,56.3,51.1,58.1,53.0,49.0,98,89,82,30.40,30.15,0,0,0,0.00
2013-10-13,60.6,54.1,47.5,51.6,47.8,44.4,95,80,61,30.44,30.37,0,0,0,0.00
2013-10-14,63.5,52.1,40.5,51.1,44.8,36.1,97,79,37,30.41,30.26,0,0,0,0.00
2013-10-15,67.6,58.5,50.9,55.2,52.0,48.5,93,80,61,30.27,30.19,0,0,0,0.00
2013-10-16,63.0,57.3,51.8,56.5,54.0,50.9,98,89,78,30.18,29.92,0,0,0,0.00
2013-10-17,71.8,62.6,54.5,61.7,58.4,53.7,99,87,66,29.92,29.73,0,0,0,0.00
2013-10-18,67.6,62.2,53.4,62.1,52.3,43.6,98,72,45,29.91,29.62,0,0,0,0.04
2013-10-19,66.7,56.9,46.6,47.8,44.2,41.2,85,64,41,29.97,29.76,0,0,0,0.00
2013-10-20,61.9,55.7,47.5,52.3,41.4,30.9,94,62,32,30.02,29.69,0,0,0,0.01
2013-10-21,66.2,54.1,42.8,45.3,40.7,37.0,83,62,39,30.11,29.99,0,0,0,0.00
2013-10-22,68.4,57.1,48.2,53.7,47.4,39.7,93,71,50,29.99,29.69,0,0,0,0.00
2013-10-23,53.2,49.6,42.4,39.6,36.2,32.1,83,61,45,29.80,29.58,0,0,0,0.00
2013-10-24,53.8,47.9,41.2,36.8,30.5,22.9,75,53,30,29.87,29.62,0,0,0,0.00
2013-10-25,50.5,43.5,37.6,34.7,29.7,26.6,79,59,41,30.15,29.88,0,0,0,0.00
2013-10-26,55.4,45.6,35.6,37.9,30.4,23.7,82,58,29,30.15,29.87,0,0,0,0.00
2013-10-27,54.7,49.5,44.6,42.1,35.7,29.2,86,61,39,30.06,29.81,0,0,0,0.02
2013-10-28,59.0,47.4,38.1,35.0,32.2,25.5,79,57,37,30.35,30.06,0,0,0,0.00
2013-10-29,49.3,41.5,33.6,34.8,28.5,22.2,84,61,37,30.44,30.35,0,0,0,0.00
2013-10-30,51.8,43.3,37.9,43.4,38.5,33.8,91,83,70,30.37,30.19,0,0,0,0.05
2013-10-31,62.6,51.0,38.3,59.8,48.8,37.3,97,92,84,30.24,29.81,0,0,0,0.04
2013-11-1,71.2,65.1,60.1,64.1,59.3,55.2,97,82,66,29.79,29.45,0,0,0,0.05
2013-11-2,66.6,58.2,51.3,55.1,47.1,40.7,90,69,39,29.72,29.57,0,0,0,0.00
2013-11-3,53.6,43.3,34.3,48.4,31.9,15.3,94,66,36,30.41,29.71,0,0,0,0.06
2013-11-4,42.3,36.0,30.0,24.4,19.1,12.1,71,51,29,30.71,30.42,0,0,0,0.00
2013-11-5,49.6,40.3,30.6,35.6,28.5,21.8,74,63,45,30.73,30.52,0,0,0,0.00
2013-11-6,60.4,51.9,42.8,50.8,42.3,34.6,86,70,52,30.52,30.04,0,0,0,0.00
2013-11-7,66.7,55.6,48.2,59.6,51.4,40.7,94,86,70,30.04,29.66,0,0,0,0.27
2013-11-8,48.2,42.4,36.7,40.7,28.6,22.0,75,58,46,30.09,29.81,0,0,0,0.00
2013-11-9,46.4,40.8,34.3,29.1,24.2,18.2,64,52,33,30.21,30.03,0,0,0,0.00
2013-11-10,57.2,48.0,43.5,44.8,37.3,29.3,91,67,47,30.03,29.72,0,0,0,0.05
2013-11-11,52.2,46.6,41.0,33.6,28.6,21.4,64,50,30,30.10,29.84,0,0,0,0.00
2013-11-12,49.1,37.7,30.2,40.9,25.0,15.1,89,61,44,30.19,29.89,0,0,0,0.12
2013-11-13,36.9,31.2,26.2,17.8,12.3,5.0,64,46,27,30.29,30.17,0,0,0,0.00
2013-11-14,50.7,40.8,30.9,27.0,20.3,16.2,56,44,29,30.17,30.03,0,0,0,0.00
2013-11-15,61.9,48.4,37.8,34.5,22.9,16.0,61,38,22,30.20,30.10,0,0,0,0.00
2013-11-16,59.2,48.2,42.3,34.6,30.4,22.3,74,52,24,30.32,30.18,0,0,0,0.00
2013-11-17,57.6,47.9,-22.4,57.3,43.1,-61.1,99,84,10,30.32,29.85,1,0,1,0.04
2013-11-18,65.5,60.1,50.5,62.3,48.9,33.1,99,70,44,29.84,29.53,0,0,0,0.09
2013-11-19,78.1,53.0,33.1,57.4,32.6,15.2,72,46,34,30.43,29.64,56,18,56,0.00
2013-11-20,41.7,34.8,30.0,16.9,13.4,9.5,55,42,27,30.78,30.44,0,0,0,0.00
2013-11-21,45.0,32.8,27.9,31.3,17.5,13.4,65,53,38,30.79,30.53,0,0,0,0.00
2013-11-22,47.8,45.6,42.3,47.6,42.4,31.7,99,89,66,30.51,29.97,0,0,0,0.21
2013-11-23,48.9,42.0,31.8,47.9,26.5,14.0,99,56,29,30.05,29.92,0,0,0,0.01
2013-11-24,31.6,25.6,21.9,15.8,0.8,-6.0,56,35,23,30.33,29.92,0,0,0,0.02
2013-11-25,33.4,26.4,18.5,16.3,0.7,-6.5,51,33,24,30.52,30.33,0,0,0,0.00
2013-11-26,43.3,38.3,32.4,42.8,23.6,14.7,98,57,44,30.48,30.20,0,0,0,0.07
2013-11-27,62.6,52.7,39.6,61.8,51.6,35.4,99,96,83,30.18,29.35,0,0,0,1.23
2013-11-28,39.2,32.7,27.3,34.8,15.5,1.0,85,51,26,30.58,29.58,0,0,0,0.00
2013-11-29,33.6,28.6,23.7,14.9,8.5,0.1,59,43,28,30.90,30.58,0,0,0,0.00
2013-11-30,34.2,27.4,18.3,22.9,13.2,4.7,63,54,44,30.95,30.60,0,0,0,0.00
2013-12-1,41.2,38.0,34.3,39.9,34.4,23.5,99,87,64,30.59,30.16,0,0,0,0.20
2013-12-2,41.0,38.9,37.2,40.1,38.3,36.5,99,98,95,30.16,30.07,0,0,0,0.01
2013-12-3,48.6,40.5,36.7,38.1,35.1,31.8,99,82,55,30.08,29.98,0,0,0,0.01
2013-12-4,44.4,38.3,33.6,30.9,29.1,25.8,86,70,51,30.34,30.09,0,0,0,0.00
2013-12-5,52.7,45.2,35.1,52.2,41.1,28.6,99,85,75,30.36,30.06,0,0,0,0.00
2013-12-6,55.8,54.7,35.6,55.0,53.7,33.0,98,97,89,30.78,30.00,0,0,0,0.33
2013-12-7,40.1,35.5,31.6,33.8,26.6,18.1,92,71,49,30.61,30.24,0,0,0,0.13
2013-12-8,32.0,30.1,26.4,19.0,14.2,11.9,60,51,45,30.75,30.61,0,0,0,0.00
2013-12-9,41.4,34.8,27.0,41.1,31.6,12.0,99,89,46,30.66,30.04,0,0,0,0.28
2013-12-10,36.3,33.2,27.7,34.4,28.7,12.1,95,84,51,30.16,29.94,0,0,0,0.04
2013-12-11,32.5,27.8,24.4,19.2,16.5,14.2,69,62,51,30.37,30.16,0,0,0,0.00
2013-12-12,26.4,23.5,18.7,16.6,4.1,-5.3,67,44,26,30.42,30.24,0,0,0,0.00
2013-12-13,30.6,23.6,16.9,15.4,7.6,-3.2,63,50,40,30.55,30.14,0,0,0,0.00
2013-12-14,29.8,17.8,11.1,28.1,2.2,-11.1,93,52,33,30.76,30.32,0,0,0,0.00
2013-12-15,40.5,29.9,23.4,39.1,26.1,16.3,96,86,64,30.29,29.57,0,0,0,0.20
2013-12-16,28.4,25.9,20.7,21.0,10.6,2.4,75,53,33,30.36,29.90,0,0,0,0.00
2013-12-17,21.4,16.3,8.8,17.3,5.5,-6.7,85,63,45,30.44,30.10,0,0,0,0.00
2013-12-18,34.5,26.5,17.4,20.7,17.0,10.5,83,68,48,30.24,30.02,0,0,0,0.00
2013-12-19,42.1,34.2,26.4,27.6,22.9,17.2,75,63,51,30.27,30.11,0,0,0,0.06
2013-12-20,52.3,42.7,35.2,37.9,31.7,25.4,77,65,52,30.27,30.06,0,0,0,0.01
2013-12-21,56.5,49.5,43.0,46.9,42.0,33.0,85,75,63,30.11,30.02,0,0,0,0.00
2013-12-22,53.6,43.0,35.8,51.6,41.1,33.9,97,93,84,30.19,29.94,0,0,0,0.00
2013-12-23,39.2,35.2,33.1,38.3,33.6,31.8,98,94,93,30.24,30.13,0,0,0,0.47
2013-12-24,39.2,34.1,28.8,37.4,20.2,12.1,93,57,42,30.36,30.20,0,0,0,0.01
2013-12-25,28.2,21.1,15.6,10.6,0.8,-8.1,52,41,30,30.70,30.36,0,0,0,0.00
2013-12-26,36.0,29.0,21.6,29.5,20.0,3.6,85,70,45,30.67,30.24,0,0,0,0.00
2013-12-27,34.7,30.2,25.5,21.3,19.0,17.3,75,63,49,30.43,30.34,0,0,0,0.00
2013-12-28,46.9,36.2,27.3,28.2,23.7,17.3,74,61,44,30.37,30.15,0,0,0,0.01
2013-12-29,43.7,38.4,33.1,40.5,32.1,24.4,97,78,63,30.19,29.56,0,0,0,1.09
2013-12-30,43.3,34.6,21.0,36.6,22.8,5.9,95,65,35,30.33,29.67,0,0,0,0.00
2013-12-31,26.8,20.7,15.1,12.8,0.7,-9.4,61,41,30,30.33,30.18,0,0,0,0.00
2014-1-1,28.2,23.9,19.0,8.0,4.0,0.6,53,42,31,30.55,30.34,0,0,0,0.00
2014-1-2,23.4,13.6,1.8,11.6,4.7,-6.8,72,67,44,30.52,30.01,0,0,0,0.00